R1ZCU-14 Weather Reports


Display with metric or nautical units.
time (UTC)temp
F
wind
direction
speed
MPH
gust
MPH
rain 1hr
in
rain 24hr
in
rain mn
in
humidity
%
barometer
mb
20260508131534 45 0.0 0.0 0.00 0.00 0.00 34 1017.7
20260508130533 45 0.0 0.0 0.00 0.00 0.00 35 1017.6
20260508125533 46 0.0 0.0 0.00 0.00 0.00 34 1017.7
20260508124532 46 0.0 0.0 0.00 0.00 0.00 34 1017.7
20260508123532 46 0.0 0.0 0.00 0.00 0.00 33 1017.6
20260508122531 46 0.0 0.0 0.00 0.00 0.00 32 1017.4
20260508121531 46 0.0 0.0 0.00 0.00 0.00 32 1017.5
20260508120530 47 0.0 0.0 0.00 0.00 0.00 32 1017.5
20260508115530 48 0.0 0.0 0.00 0.00 0.00 34 1017.4
20260508114529 47 0.0 0.0 0.00 0.00 0.00 36 1017.3
20260508113529 46 0.0 0.0 0.00 0.00 0.00 34 1017.3
20260508112528 45 0.0 0.0 0.00 0.00 0.00 36 1017.3
20260508111528 46 0.0 0.0 0.00 0.00 0.00 36 1017.2
20260508110527 46 0.0 0.0 0.00 0.00 0.00 37 1017.2
20260508105527 46 0.0 0.0 0.00 0.00 0.00 38 1017.1
20260508104526 45 0.0 0.0 0.00 0.00 0.00 41 1017.1
20260508103526 46 0.0 0.0 0.00 0.00 0.00 39 1017.0
20260508102525 47 0.0 0.0 0.00 0.00 0.00 38 1017.0
20260508101525 48 0.0 0.0 0.00 0.00 0.00 38 1016.7
20260508100524 46 0.0 0.0 0.00 0.00 0.00 40 1016.7
20260508095524 45 0.0 0.0 0.00 0.00 0.00 43 1016.7
20260508094523 44 0.0 0.0 0.00 0.00 0.00 43 1016.8
20260508093523 44 0.0 0.0 0.00 0.00 0.00 45 1016.7
20260508092522 44 0.0 0.0 0.00 0.00 0.00 46 1016.6
20260508091522 46 0.0 0.0 0.00 0.00 0.00 42 1016.6
20260508090521 55 0.0 0.0 0.00 0.00 0.00 32 1016.4
20260508085521 57 0.0 0.0 0.00 0.00 0.00 29 1015.5
20260508084520 46 0.0 0.0 0.00 0.00 0.00 45 1016.6
20260508083520 50 0.0 0.0 0.00 0.00 0.00 40 1016.3
20260508082519 45 0.0 0.0 0.00 0.00 0.00 48 1016.2
20260508081519 44 0.0 0.0 0.00 0.00 0.00 52 1016.1
20260508080518 43 0.0 0.0 0.00 0.00 0.00 53 1016.2
20260508075518 42 0.0 0.0 0.00 0.00 0.00 56 1016.3
20260508074517 41 0.0 0.0 0.00 0.00 0.00 60 1016.1
20260508073517 42 0.0 0.0 0.00 0.00 0.00 61 1016.2
20260508072516 42 0.0 0.0 0.00 0.00 0.00 60 1016.1
20260508071516 43 0.0 0.0 0.00 0.00 0.00 59 1016.0
20260508070515 44 0.0 0.0 0.00 0.00 0.00 57 1015.9
20260508065515 44 0.0 0.0 0.00 0.00 0.00 56 1015.8
20260508064514 43 0.0 0.0 0.00 0.00 0.00 57 1015.8
20260508063514 43 0.0 0.0 0.00 0.00 0.00 58 1015.7
20260508062513 45 0.0 0.0 0.00 0.00 0.00 58 1015.7
20260508061513 46 0.0 0.0 0.00 0.00 0.00 54 1015.6
20260508060512 51 0.0 0.0 0.00 0.00 0.00 40 1015.4
20260508055512 45 0.0 0.0 0.00 0.00 0.00 55 1014.7
20260508054511 43 0.0 0.0 0.00 0.00 0.00 58 1015.4
20260508053511 43 0.0 0.0 0.00 0.00 0.00 60 1015.2
20260508052510 44 0.0 0.0 0.00 0.00 0.00 58 1015.2
20260508051510 43 0.0 0.0 0.00 0.00 0.00 61 1015.2
20260508050509 45 0.0 0.0 0.00 0.00 0.00 56 1014.9
20260508045509 47 0.0 0.0 0.00 0.00 0.00 48 1015.0
20260508044508 47 0.0 0.0 0.00 0.00 0.00 47 1015.0
20260508043508 46 0.0 0.0 0.00 0.00 0.00 54 1014.2
20260508042507 45 0.0 0.0 0.00 0.00 0.00 57 1014.8
20260508041507 46 0.0 0.0 0.00 0.00 0.00 56 1014.3
20260508040506 47 0.0 0.0 0.00 0.00 0.00 53 1014.4
20260508035506 48 0.0 0.0 0.00 0.00 0.00 54 1014.1
20260508034505 48 0.0 0.0 0.00 0.00 0.00 55 1014.1
20260508033505 47 0.0 0.0 0.00 0.00 0.00 58 1014.0
20260508032504 46 0.0 0.0 0.00 0.00 0.00 60 1014.0
20260508031504 47 0.0 0.0 0.00 0.00 0.00 58 1013.9
20260508030503 47 0.0 0.0 0.00 0.00 0.00 59 1013.9
20260508025503 47 0.0 0.0 0.00 0.00 0.00 61 1013.8
20260508024502 47 0.0 0.0 0.00 0.00 0.00 62 1013.8
20260508023502 46 0.0 0.0 0.00 0.00 0.00 64 1013.7
20260508022501 47 0.0 0.0 0.00 0.00 0.00 64 1013.7
20260508021501 46 0.0 0.0 0.00 0.00 0.00 66 1013.6
20260508020500 46 0.0 0.0 0.00 0.00 0.00 69 1013.6
20260508015500 45 0.0 0.0 0.00 0.00 0.00 74 1013.6
20260508014459 43 0.0 0.0 0.00 0.00 0.00 86 1013.6
20260508013459 39 0.0 0.0 0.00 0.00 0.00 1013.6
20260508012458 38 0.0 0.0 0.00 0.00 0.00 1013.7
20260508011458 38 0.0 0.0 0.00 0.00 0.00 1013.7
20260508010457 38 0.0 0.0 0.00 0.00 0.00 1013.5
20260508005457 35 0.0 0.0 0.00 0.00 0.00 1013.6
20260508004456 32 0.0 0.0 0.00 0.00 0.00 1013.7
20260508003456 32 0.0 0.0 0.00 0.00 0.00 1013.8
20260508002455 32 0.0 0.0 0.00 0.00 0.00 1013.7
20260508001455 33 0.0 0.0 0.00 0.00 0.00 1013.6
20260508000457 33 0.0 0.0 0.00 0.00 0.00 1013.6
20260507235454 32 0.0 0.0 0.00 0.00 0.00 1013.4
20260507234453 32 0.0 0.0 0.00 0.00 0.00 1013.4
20260507233453 33 0.0 0.0 0.00 0.00 0.00 1013.4
20260507232452 33 0.0 0.0 0.00 0.00 0.00 1013.3
20260507231452 33 0.0 0.0 0.00 0.00 0.00 1013.2
20260507230452 33 0.0 0.0 0.00 0.00 0.00 1013.2
20260507225451 34 0.0 0.0 0.00 0.00 0.00 1013.1
20260507224451 34 0.0 0.0 0.00 0.00 0.00 1013.1
20260507223450 34 0.0 0.0 0.00 0.00 0.00 1013.0
20260507222450 34 0.0 0.0 0.00 0.00 0.00 1012.9
20260507221449 34 0.0 0.0 0.00 0.00 0.00 1012.8
20260507220449 34 0.0 0.0 0.00 0.00 0.00 1012.8
20260507215448 34 0.0 0.0 0.00 0.00 0.00 1012.6
20260507214448 34 0.0 0.0 0.00 0.00 0.00 1012.7
20260507213447 34 0.0 0.0 0.00 0.00 0.00 1012.6
20260507212446 35 0.0 0.0 0.00 0.00 0.00 1012.5
20260507211446 35 0.0 0.0 0.00 0.00 0.00 1012.5
20260507210446 35 0.0 0.0 0.00 0.00 0.00 1012.4
20260507205445 35 0.0 0.0 0.00 0.00 0.00 1012.4
20260507204445 36 0.0 0.0 0.00 0.00 0.00 1012.4
20260507203444 36 0.0 0.0 0.00 0.00 0.00 99 1012.3
20260507202444 36 0.0 0.0 0.00 0.00 0.00 97 1012.2
20260507201443 36 0.0 0.0 0.00 0.00 0.00 97 1012.1
20260507200443 36 0.0 0.0 0.00 0.00 0.00 99 1012.0
20260507195442 36 0.0 0.0 0.00 0.00 0.00 98 1011.9
20260507194442 36 0.0 0.0 0.00 0.00 0.00 96 1011.8
20260507193441 37 0.0 0.0 0.00 0.00 0.00 93 1011.8
20260507192441 37 0.0 0.0 0.00 0.00 0.00 90 1011.7
20260507191440 37 0.0 0.0 0.00 0.00 0.00 86 1011.6
20260507190440 38 0.0 0.0 0.00 0.00 0.00 83 1011.5
20260507185439 39 0.0 0.0 0.00 0.00 0.00 77 1011.5
20260507184439 39 0.0 0.0 0.00 0.00 0.00 73 1011.3
20260507183438 40 0.0 0.0 0.00 0.00 0.00 72 1011.1
20260507182438 40 0.0 0.0 0.00 0.00 0.00 73 1011.0
20260507181437 40 0.0 0.0 0.00 0.00 0.00 70 1011.0
20260507180437 41 0.0 0.0 0.00 0.00 0.00 67 1010.8
20260507175436 41 0.0 0.0 0.00 0.00 0.00 60 1010.8
20260507174436 41 0.0 0.0 0.00 0.00 0.00 60 1010.7
20260507173435 41 0.0 0.0 0.00 0.00 0.00 60 1010.7
20260507172435 42 0.0 0.0 0.00 0.00 0.00 60 1010.6
20260507171434 41 0.0 0.0 0.00 0.00 0.00 61 1010.5
20260507170434 41 0.0 0.0 0.00 0.00 0.00 63 1010.5
20260507165433 41 0.0 0.0 0.00 0.00 0.00 62 1010.4
20260507164433 41 0.0 0.0 0.00 0.00 0.00 58 1010.4
20260507163432 42 0.0 0.0 0.00 0.00 0.00 58 1010.3
20260507162432 41 0.0 0.0 0.00 0.00 0.00 60 1010.3
20260507161431 41 0.0 0.0 0.00 0.00 0.00 58 1010.3
20260507160431 42 0.0 0.0 0.00 0.00 0.00 58 1010.2
20260507155430 42 0.0 0.0 0.00 0.00 0.00 60 1010.2
20260507154430 41 0.0 0.0 0.00 0.00 0.00 61 1010.2
20260507153429 41 0.0 0.0 0.00 0.00 0.00 61 1010.3
20260507152429 41 0.0 0.0 0.00 0.00 0.00 60 1010.2
20260507151428 41 0.0 0.0 0.00 0.00 0.00 59 1010.2
20260507150428 42 0.0 0.0 0.00 0.00 0.00 55 1009.9
20260507145427 42 0.0 0.0 0.00 0.00 0.00 53 1009.9
20260507144427 43 0.0 0.0 0.00 0.00 0.00 49 1009.8
20260507143426 43 0.0 0.0 0.00 0.00 0.00 48 1009.7
20260507142426 43 0.0 0.0 0.00 0.00 0.00 48 1009.8
20260507141425 43 0.0 0.0 0.00 0.00 0.00 48 1009.6
20260507140425 43 0.0 0.0 0.00 0.00 0.00 47 1009.5
20260507135424 45 0.0 0.0 0.00 0.00 0.00 44 1009.4
20260507134424 46 0.0 0.0 0.00 0.00 0.00 40 1009.3
20260507133423 46 0.0 0.0 0.00 0.00 0.00 36 1009.2
20260507132423 46 0.0 0.0 0.00 0.00 0.00 37 1009.2